Presure
260 252 281 248 254 308 239 218 193 231 195 112 182 212 209 211 208 220 232 240 236 238 241 250 180 233 248 251 223 220 202 121
255 259 261 256 241 257 242 224 233 213 191 204 190 188 179 189 181 196 198 228 235 229 235 209 235 243 206 119 149 211 146 152
252 241 229 242 230 233 258 231 221 198 193 189 199 195 192 185 192 190 194 212 222 207 230 227 197 224 215 198 159 212 210 204
236 249 242 237 234 224 245 221 216 201 188 187 195 188 192 187 197 204 196 200 184 226 228 239 216 203 197 198 199 207 202 148
236 261 249 236 226 225 214 210 214 201 183 190 225 204 187 187 185 198 216 191 190 216 187 219 208 197 193 184 184 185 171 192
235 258 243 247 228 218 226 221 195 201 199 195 194 190 210 213 186 203 184 191 201 219 244 216 198 180 192 192 187 180 187 187
234 255 238 236 239 206 207 239 205 186 201 187 194 192 189 191 183 194 192 186 188 178 206 204 195 189 196 190 181 179 135 161
232 285 238 227 235 230 228 229 213 206 184 181 184 188 187 202 193 179 184 184 185 172 187 185 194 183 185 131 185 187 138 175
242 218 252 226 227 237 235 205 211 242 206 195 192 192 189 189 186 210 184 185 182 195 191 185 193 187 186 173 182 167 190 177
247 224 270 241 225 213 215 232 244 221 233 216 200 203 187 191 195 190 201 213 194 189 200 189 185 169 175 180 192 161 212 166
243 249 286 242 238 222 205 223 210 231 216 228 216 216 210 197 186 181 194 184 196 186 198 187 180 185 185 191 170 183 171 164
209 236 275 281 225 213 215 216 187 224 227 182 198 195 207 186 180 180 188 195 180 185 199 187 192 191 192 158 183 166 177 177
235 308 291 272 271 220 221 209 184 213 218 197 193 190 195 181 185 195 191 171 173 198 187 178 168 179 174 160 167 164 152 150
191 289 293 287 298 240 223 202 208 196 248 192 199 197 199 178 180 181 183 181 185 185 174 185 188 168 178 178 178 178 173 172
209 238 266 280 276 269 220 211 202 198 243 176 204 194 190 194 189 182 178 192 177 183 177 193 165 173 166 174 174 179 185 155
191 219 264 276 263 266 251 220 202 204 193 215 193 192 222 200 188 173 190 176 190 184 188 193 176 166 165 173 168 111 158 166
222 215 226 261 280 252 250 236 202 198 181 206 172 174 189 196 187 188 188 176 168 170 172 164 161 172 179 152 159 121 167 173
220 182 207 229 245 235 250 234 216 193 187 208 201 198 178 184 169 180 173 195 193 184 173 172 178 170 174 171 176 179 159 167
219 195 228 204 227 246 260 227 231 224 193 187 208 199 195 180 188 182 182 188 183 182 186 199 170 169 179 181 167 179 183 153
190 208 181 230 205 224 237 248 259 257 246 195 197 200 185 198 192 185 180 195 194 193 180 184 196 182 178 174 178 178 171 179
Wind_Speed
33 34 30 27 27 28 36 42 50 49 50 39 62 41 44 43 41 34 33 39 38 38 38 34 47 47 35 36 30 40 26 38
29 27 25 22 20 31 44 48 44 44 42 45 62 69 73 69 64 63 61 31 29 35 38 55 32 25 46 41 75 36 74 71
29 28 25 22 22 23 48 46 52 51 54 69 67 64 66 68 64 61 59 43 33 40 33 35 26 26 30 32 38 32 33 35
32 25 23 25 26 25 43 50 64 62 61 67 72 68 66 67 61 54 46 45 42 36 32 25 26 31 31 37 36 33 35 40
30 24 24 28 32 38 36 45 65 66 58 67 61 73 64 59 54 59 41 42 42 34 36 28 30 35 38 50 48 48 48 44
30 27 24 31 32 32 43 54 52 64 69 71 63 51 67 64 59 53 45 40 36 32 34 35 36 35 44 42 49 38 50 46
32 28 26 28 31 31 36 53 71 53 76 57 64 61 58 60 51 55 48 45 39 39 34 39 38 39 41 43 48 49 39 40
31 28 30 29 30 35 45 50 59 71 61 57 55 62 59 63 56 52 49 48 43 41 34 41 41 41 43 37 48 47 35 42
28 27 36 31 31 32 36 46 53 54 72 75 71 67 65 54 56 52 51 49 46 40 35 37 38 43 47 42 46 43 29 35
28 27 29 37 35 30 31 35 32 42 52 67 66 72 59 64 58 52 47 39 41 45 41 42 42 39 40 45 49 49 58 33
26 25 23 40 37 36 32 32 35 37 43 47 52 53 48 50 53 52 52 51 50 41 44 41 42 46 45 50 32 28 35 49
27 25 19 25 33 32 36 32 36 27 40 53 42 43 49 58 54 57 55 53 46 46 44 38 42 42 44 50 28 46 45 32
29 24 20 22 31 38 39 37 38 31 40 43 41 47 53 59 60 62 56 43 42 47 45 37 42 35 37 50 44 49 63 65
31 21 14 14 18 46 42 39 36 36 38 44 47 52 60 52 50 51 55 51 50 45 39 47 49 41 39 45 41 41 38 38
31 24 18 18 11 29 45 45 38 42 39 47 49 49 52 66 64 57 51 63 47 48 43 56 45 37 44 42 44 49 53 59
29 24 18 17 10 13 38 50 43 41 44 49 49 52 58 67 65 51 64 44 62 58 57 62 45 46 48 48 51 40 56 48
21 22 18 16 16 13 26 42 46 44 47 50 42 47 51 60 58 60 59 47 47 49 46 49 50 51 58 58 53 44 54 54
21 27 21 11 11 13 19 30 48 48 51 53 54 57 50 53 51 53 52 64 60 57 51 48 54 56 51 51 60 62 61 60
23 25 16 19 11 10 14 25 32 48 52 56 57 60 56 51 55 53 53 58 54 54 57 64 53 53 63 62 60 65 70 54
38 27 24 15 17 11 8 14 20 33 43 55 57 56 52 65 62 57 52 67 63 64 55 59 69 63 63 57 63 64 60 70
Wind_Direction
291 287 271 273 258 202 210 229 247 195 237 254 253 246 251 249 244 252 258 254 254 253 249 242 258 261 259 257 248 264 261 286
286 272 262 238 242 200 204 218 189 200 226 224 238 245 260 259 264 262 264 256 247 253 234 255 258 241 258 273 264 259 267 267
286 279 276 230 221 220 196 197 193 213 207 239 225 242 246 260 259 268 269 265 259 259 245 249 255 234 236 247 264 248 251 248
292 268 256 227 203 221 195 197 193 206 220 233 234 246 242 256 258 259 261 270 266 254 239 220 217 236 247 246 246 239 233 264
291 253 252 228 228 213 208 210 202 211 242 242 227 231 253 257 264 258 252 266 275 252 259 206 209 234 237 253 257 261 263 261
290 253 252 225 222 221 204 212 224 218 219 233 246 250 235 236 258 254 269 274 263 244 216 194 229 234 237 240 251 243 256 259
293 243 254 247 219 234 229 209 213 237 220 240 243 245 249 248 254 256 262 263 259 261 220 209 226 239 233 240 254 260 279 267
289 246 246 252 241 220 214 217 217 218 235 242 245 245 246 246 251 258 258 260 263 255 223 242 224 241 242 261 253 259 273 265
287 287 232 249 246 227 225 222 216 226 223 228 235 239 243 248 254 253 252 253 258 227 237 239 229 231 238 258 256 252 271 263
290 287 239 235 244 244 238 234 232 221 223 222 229 232 242 246 242 245 243 226 231 246 220 231 236 250 253 251 257 250 264 267
288 286 250 237 235 237 243 231 227 229 221 218 219 228 227 232 236 244 242 247 241 244 224 238 246 244 250 252 246 269 239 252
302 287 265 238 238 239 237 236 237 224 223 228 217 225 225 232 239 244 242 243 253 257 245 247 250 253 257 249 275 249 270 271
301 306 280 242 224 231 228 233 235 221 219 218 222 221 217 234 237 240 249 248 248 248 253 256 251 259 243 241 243 246 253 259
306 315 297 275 254 223 226 229 227 228 219 222 217 221 220 237 240 242 246 249 249 252 255 259 258 254 268 270 276 278 272 270
307 317 328 301 267 214 227 225 223 223 213 234 216 222 223 227 233 240 241 246 250 253 256 255 253 259 250 272 273 279 288 257
303 311 342 325 272 223 214 223 223 221 229 216 224 224 222 223 229 243 242 243 251 252 256 257 257 253 251 269 259 285 257 268
316 309 321 340 303 234 215 217 224 221 243 225 248 239 228 230 235 239 244 246 248 251 251 250 251 262 267 259 261 280 268 274
308 303 304 320 335 253 238 221 221 223 232 224 229 226 237 231 240 239 241 244 251 250 253 255 262 263 264 264 269 270 263 270
318 297 318 297 302 312 271 232 227 220 227 238 229 233 236 240 238 242 245 249 249 254 257 256 254 258 267 264 260 277 281 280
297 298 288 308 288 284 311 266 260 236 222 231 237 238 245 241 243 245 249 251 255 258 255 262 261 264 266 271 278 280 273 286